Millinocket, ME

11:58 PM EST on February 12, 2016 (GMT -0500)
Millinocket Municipal

Weather History for KMLT - January, 2014

Change the Weather History Date:

Sunday, January 19, 2014

  Actual Average Record
Temperature  
Mean Temperature 25 °F 13 °F  
Max Temperature 30 °F 23 °F 51 °F (1990)
Min Temperature 20 °F 3 °F -41 °F (1925)
Degree Days  
Heating Degree Days 40 52  
Month to date heating degree days 849 962  
Since 1 July heating degree days 4005 4127  
Cooling Degree Days 0 0  
Month to date cooling degree days 0 0  
Year to date cooling degree days 0 0  
Moisture  
Dew Point 24 °F    
Average Humidity 81    
Maximum Humidity 92    
Minimum Humidity 69    
Precipitation  
Precipitation 0.11 in 0.08 in 0.92 in (1942)
Month to date precipitation 3.25 1.94  
Year to date precipitation 3.25 1.94  
Sea Level Pressure  
Sea Level Pressure 29.45 in    
Wind  
Wind Speed 2 mph (SSE)    
Max Wind Speed 10 mph    
Max Gust Speed 17 mph    
Visibility 4 miles    
Events Fog , Snow    
T = Trace of Precipitation, MM = Missing Value Source: NWS Daily Summary

Daily Weather History Graph

Daily Weather History Graph

Search for Another Location

Airport or City:

Trip Planner

Search our weather history database for the weather conditions in past years. The results will help you decide how hot, cold, wet, or windy it might be!

Date:

Astronomy

Jan. 19, 2014 Rise Set
Actual Time 7:08 AM EST 4:22 PM EST
Civil Twilight 6:36 AM EST 4:55 PM EST
Nautical Twilight 5:59 AM EST 5:32 PM EST
Astronomical Twilight 5:24 AM EST 6:07 PM EST
Moon 8:10 PM EST (1/19) 8:25 AM EST (1/19)
Length of Visible Light 10h 19m
Length of Day
9h 13m
Waning Gibbous, 89% of the Moon is Illuminated
Jan 19
Waning Gibbous
Jan 24
Last Quarter
Jan 30
New
Feb 6
First Quarter
Feb 14
Full

Hourly Weather History & Observations

Time (EST) Temp. Windchill Dew Point Humidity Pressure Visibility Wind Dir Wind Speed Gust Speed Precip Events Conditions
12:14 AM 24.1 °F - 21.0 °F 88% 29.63 in 2.5 mi Calm Calm - N/A   Mostly Cloudy
12:21 AM 24.1 °F - 21.0 °F 88% 29.63 in 3.0 mi Calm Calm - N/A   Overcast
12:53 AM 23.0 °F - 19.9 °F 88% 29.68 in 5.0 mi Calm Calm - N/A   Mostly Cloudy
1:53 AM 21.0 °F - 18.0 °F 88% 29.68 in 7.0 mi Calm Calm - N/A   Mostly Cloudy
2:53 AM 21.0 °F - 18.0 °F 88% 29.69 in 8.0 mi Calm Calm - N/A   Overcast
3:53 AM 21.0 °F - 19.0 °F 92% 29.68 in 6.0 mi Calm Calm - N/A   Overcast
4:53 AM 21.9 °F - 19.0 °F 89% 29.67 in 7.0 mi Calm Calm - N/A   Overcast
5:53 AM 21.0 °F - 18.0 °F 88% 29.66 in 8.0 mi Calm Calm - N/A   Overcast
6:53 AM 21.0 °F - 18.0 °F 88% 29.67 in 6.0 mi Calm Calm - N/A   Overcast
7:53 AM 21.9 °F - 19.9 °F 92% 29.65 in 7.0 mi Calm Calm - N/A   Overcast
8:32 AM 23.0 °F - 19.9 °F 88% 29.61 in 1.8 mi Calm Calm - 0.00 in Snow Light Snow
8:43 AM 23.0 °F - 21.0 °F 92% 29.61 in 3.0 mi Calm Calm - 0.00 in   Overcast
8:53 AM 24.1 °F - 21.0 °F 88% 29.64 in 6.0 mi Calm Calm - 0.00 in   Overcast
9:53 AM 26.1 °F - 23.0 °F 88% 29.61 in 2.0 mi Calm Calm - 0.00 in Snow Light Snow
9:57 AM 26.1 °F - 23.0 °F 88% 29.58 in 1.2 mi Calm Calm - 0.00 in Snow Light Snow
10:04 AM 26.1 °F - 23.0 °F 88% 29.58 in 1.5 mi Calm Calm - 0.00 in Snow Light Snow
10:15 AM 26.1 °F - 24.1 °F 92% 29.57 in 2.5 mi Calm Calm - 0.00 in Snow Light Snow
10:28 AM 26.1 °F - 24.1 °F 92% 29.56 in 1.8 mi Calm Calm - 0.00 in Snow Light Snow
10:33 AM 27.0 °F - 24.1 °F 89% 29.56 in 0.8 mi Calm Calm - 0.00 in Snow Light Snow
10:53 AM 27.0 °F - 25.0 °F 92% 29.57 in 0.8 mi Calm Calm - 0.01 in Snow Light Snow
11:53 AM 28.9 °F 25.2 °F 26.1 °F 89% 29.50 in 0.5 mi ESE 3.5 mph - 0.02 in Fog , Snow Snow
12:11 PM 28.9 °F 25.2 °F 27.0 °F 92% 29.45 in 0.8 mi ESE 3.5 mph - 0.01 in Snow Light Snow
12:53 PM 28.9 °F 25.2 °F 27.0 °F 92% 29.44 in 0.8 mi East 3.5 mph - 0.02 in Snow Light Snow
1:19 PM 30.0 °F 26.5 °F 27.0 °F 88% 29.39 in 0.8 mi ENE 3.5 mph - 0.01 in Snow Light Snow
1:26 PM 30.0 °F - 27.0 °F 88% 29.38 in 1.0 mi Calm Calm - 0.01 in Snow Light Snow
1:34 PM 28.9 °F - 27.0 °F 92% 29.38 in 0.8 mi Calm Calm - 0.01 in Snow Light Snow
1:41 PM 28.9 °F - 27.0 °F 92% 29.37 in 0.5 mi Calm Calm - 0.01 in Fog , Snow Snow
1:53 PM 28.9 °F 25.2 °F 27.0 °F 92% 29.40 in 0.2 mi East 3.5 mph - 0.03 in Fog , Snow Heavy Snow
2:22 PM 30.0 °F 26.5 °F 28.0 °F 92% 29.35 in 0.5 mi ESE 3.5 mph - 0.02 in Fog , Snow Snow
2:35 PM 28.9 °F 23.9 °F 27.0 °F 92% 29.34 in 0.8 mi ESE 4.6 mph - 0.03 in Snow Light Snow
2:42 PM 30.0 °F 26.5 °F 27.0 °F 88% 29.34 in 1.2 mi ESE 3.5 mph - 0.03 in Snow Light Snow
2:49 PM 30.2 °F 26.7 °F 26.6 °F 86% 29.33 in 1.5 mi SE 3.5 mph - 0.03 in Snow Light Snow
2:53 PM 30.0 °F 26.5 °F 27.0 °F 88% 29.37 in 1.8 mi SSE 3.5 mph - 0.03 in Snow Light Snow
3:03 PM 30.0 °F 26.5 °F 27.0 °F 88% 29.33 in 2.5 mi SSE 3.5 mph - 0.00 in Snow Light Snow
3:15 PM 28.9 °F 25.2 °F 27.0 °F 92% 29.33 in 4.0 mi SSE 3.5 mph - 0.00 in Snow Light Snow
3:45 PM 30.0 °F - 27.0 °F 88% 29.32 in 3.0 mi Calm Calm - 0.00 in Snow Light Snow
3:53 PM 30.0 °F - 27.0 °F 88% 29.35 in 2.5 mi Calm Calm - 0.00 in Snow Light Snow
4:02 PM 28.9 °F - 27.0 °F 92% 29.31 in 3.0 mi Calm Calm - 0.00 in Snow Light Snow
4:11 PM 28.9 °F 25.2 °F 27.0 °F 92% 29.31 in 2.5 mi South 3.5 mph - 0.00 in Snow Light Snow
4:21 PM 28.9 °F - 27.0 °F 92% 29.31 in 4.0 mi Calm Calm - 0.00 in Snow Light Snow
4:49 PM 28.4 °F 24.6 °F 26.6 °F 93% 29.31 in 7.0 mi Variable 3.5 mph - 0.00 in   Overcast
4:53 PM 28.9 °F - 26.1 °F 89% 29.34 in 8.0 mi Calm Calm - 0.00 in   Overcast
5:23 PM 28.0 °F - 25.0 °F 88% 29.29 in 10.0 mi Calm Calm - N/A   Mostly Cloudy
5:31 PM 28.0 °F 22.8 °F 25.0 °F 88% 29.29 in 10.0 mi Variable 4.6 mph - N/A   Mostly Cloudy
5:53 PM 28.9 °F 25.2 °F 26.1 °F 89% 29.32 in 10.0 mi Variable 3.5 mph - N/A   Mostly Cloudy
6:53 PM 30.0 °F 26.5 °F 26.1 °F 85% 29.32 in 10.0 mi Variable 3.5 mph - N/A   Overcast
7:07 PM 30.0 °F 24.1 °F 26.1 °F 85% 29.30 in 2.5 mi West 5.8 mph - 0.00 in Snow Light Snow
7:30 PM 28.9 °F 21.9 °F 25.0 °F 85% 29.30 in 6.0 mi West 6.9 mph - 0.00 in Snow Light Snow
7:51 PM 28.4 °F 22.2 °F 24.8 °F 86% 29.31 in 9.0 mi West 5.8 mph - 0.00 in   Overcast
7:53 PM 28.9 °F 23.9 °F 24.1 °F 82% 29.35 in 9.0 mi West 4.6 mph - 0.00 in   Overcast
8:53 PM 28.0 °F 20.8 °F 19.9 °F 72% 29.37 in 10.0 mi WSW 6.9 mph - N/A   Mostly Cloudy
9:53 PM 25.0 °F 20.7 °F 19.0 °F 78% 29.37 in 10.0 mi Variable 3.5 mph - N/A   Partly Cloudy
10:53 PM 24.1 °F 18.2 °F 17.1 °F 75% 29.38 in 10.0 mi Variable 4.6 mph - N/A   Partly Cloudy
11:53 PM 25.0 °F 15.5 °F 18.0 °F 75% 29.37 in 10.0 mi SSW 9.2 mph - N/A   Overcast